Flag for Aruba Weather past 2 weeks in Oranjestad, Aruba

Now
90 °F

Scattered clouds.


Feels Like: 103 °F
Forecast: 81 / 90 °F
Wind: 24 mph from East

Location: Queen Beatrix Airport - Aruba

Current Time: Jul 24, 2014 at 12:11:01 PM

Latest Report: Jul 24, 2014 at 11:00 AM


Visibility: N/A

Pressure: 29.89 "Hg

Humidity: 67%

Dew point: 77 °F

Location of OranjestadLocation

Historic Weather in Oranjestad — Graph

°F

Oranjestad temperature yesterday

Maximum temperature yesterday: 90 °F (at 12:00 PM)
Minimum temperature yesterday: 81 °F (at 12:00 AM)
Average temperature yesterday: 84 °F

Past Weeks' High & Low Weather Summary

 TemperatureHumidityPressure
High91 °F (Jul 9, 1:00 PM)89% (Jul 11, 12:00 AM)30.01 "Hg (Jul 11, 12:00 AM)
Low81 °F (Jul 10, 12:00 AM)59% (Jul 9, 1:00 PM)29.83 "Hg (Jul 15, 5:00 PM)
Average84 °F77%29.92 "Hg
* Reported Jul 9 11:00 AM — Jul 24 11:00 AM, Oranjestad, Weather by CustomWeather, © 2014

Note: Actual official high and low records may vary slightly from our data, if they occured in-between our weather recording intervals... More about our weather records

Advertising

Oranjestad weather history for previous 24 hours

 ConditionsComfort  
Time TempWeatherWind HumidityBarometerVisibility
11:00 AM
Jul 24
90 °FScattered clouds.24 mph67%29.89 "HgN/A
10:00 AM88 °FPassing clouds.25 mph66%29.89 "HgN/A
9:00 AM86 °FScattered clouds.22 mph70%29.89 "HgN/A
8:00 AM82 °FScattered clouds.22 mph79%29.89 "HgN/A
7:00 AM81 °FScattered clouds.17 mph84%29.89 "HgN/A
6:00 AM81 °FPassing clouds.20 mph84%29.86 "HgN/A
5:00 AM81 °FPassing clouds.18 mph84%29.86 "HgN/A
3:00 AM82 °FPassing clouds.18 mph79%29.89 "HgN/A
2:00 AM82 °FPassing clouds.20 mph79%29.89 "HgN/A
1:00 AM82 °FPassing clouds.21 mph79%29.89 "HgN/A
12:00 AM82 °FPassing clouds.21 mph79%29.92 "HgN/A
11:00 PM
Jul 23
82 °FPassing clouds.21 mph84%29.92 "HgN/A
10:00 PM82 °FPassing clouds.22 mph84%29.92 "HgN/A
9:00 PM82 °FPassing clouds.21 mph84%29.89 "HgN/A
8:00 PM82 °FPassing clouds.23 mph79%29.89 "HgN/A
7:00 PM82 °FPassing clouds.23 mph79%29.86 "HgN/A
6:00 PM84 °FPassing clouds.23 mph74%29.86 "HgN/A
5:00 PM84 °FScattered showers. Passing clouds.25 mph79%29.86 "HgN/A
4:00 PM90 °FPassing clouds.26 mph67%29.86 "HgN/A
3:00 PM90 °FPassing clouds.23 mph71%29.86 "HgN/A
1:00 PM90 °FPassing clouds.25 mph67%29.92 "HgN/A
12:00 PM90 °FScattered clouds.25 mph67%29.92 "HgN/A
Weather by CustomWeather, © 2014

See weather overviewHow to use our weather pages